TimeCST,TemperatureF,Dew PointF,Humidity,Sea Level PressureIn,VisibilityMPH,Wind Direction,Wind SpeedMPH,Gust SpeedMPH,PrecipitationIn,Events,Conditions,WindDirDegrees,DateUTC
12:52 AM,6.1,3.0,87,30.19,10.0,WNW,3.5,-,N/A,,Clear,300,2013-03-03 06:52:00
1:52 AM,6.1,3.0,87,30.19,10.0,WNW,3.5,-,N/A,,Clear,290,2013-03-03 07:52:00
2:52 AM,8.1,5.0,87,30.17,10.0,WNW,3.5,-,N/A,,Clear,290,2013-03-03 08:52:00
3:52 AM,8.1,3.9,83,30.16,10.0,WNW,5.8,-,N/A,,Clear,290,2013-03-03 09:52:00
4:52 AM,5.0,1.9,87,30.17,10.0,WNW,4.6,-,N/A,,Clear,290,2013-03-03 10:52:00
5:52 AM,7.0,3.0,84,30.19,10.0,WNW,4.6,-,N/A,,Clear,300,2013-03-03 11:52:00
6:52 AM,7.0,3.9,87,30.19,10.0,NW,3.5,-,N/A,,Clear,310,2013-03-03 12:52:00
7:52 AM,10.9,8.1,88,30.19,10.0,Calm,Calm,-,N/A,,Clear,0,2013-03-03 13:52:00
8:52 AM,16.0,10.0,77,30.19,10.0,Calm,Calm,-,N/A,,Clear,0,2013-03-03 14:52:00
9:52 AM,23.0,14.0,68,30.18,10.0,West,5.8,-,N/A,,Clear,270,2013-03-03 15:52:00
10:52 AM,26.1,10.9,53,30.17,10.0,WNW,6.9,-,N/A,,Clear,300,2013-03-03 16:52:00
11:52 AM,27.0,10.9,51,30.16,10.0,WNW,8.1,-,N/A,,Clear,300,2013-03-03 17:52:00
12:52 PM,28.0,12.9,53,30.14,10.0,WNW,8.1,-,N/A,,Clear,300,2013-03-03 18:52:00
1:52 PM,28.0,10.9,49,30.12,10.0,West,8.1,-,N/A,,Clear,280,2013-03-03 19:52:00
2:52 PM,28.0,12.0,51,30.12,10.0,West,6.9,-,N/A,,Clear,280,2013-03-03 20:52:00
3:52 PM,28.0,12.9,53,30.12,10.0,WNW,5.8,-,N/A,,Clear,290,2013-03-03 21:52:00
4:52 PM,27.0,16.0,63,30.12,10.0,WNW,4.6,-,N/A,,Clear,300,2013-03-03 22:52:00
5:52 PM,21.9,15.1,75,30.13,10.0,West,4.6,-,N/A,,Clear,270,2013-03-03 23:52:00
6:52 PM,19.9,14.0,78,30.13,10.0,WNW,3.5,-,N/A,,Clear,290,2013-03-04 00:52:00
7:52 PM,15.1,10.9,84,30.14,10.0,Calm,Calm,-,N/A,,Clear,0,2013-03-04 01:52:00
8:52 PM,12.9,10.9,92,30.14,10.0,Calm,Calm,-,N/A,,Clear,0,2013-03-04 02:52:00
9:52 PM,15.1,10.9,84,30.13,10.0,NNE,3.5,-,N/A,,Clear,20,2013-03-04 03:52:00
10:52 PM,14.0,10.0,84,30.13,10.0,Calm,Calm,-,N/A,,Clear,0,2013-03-04 04:52:00
11:52 PM,16.0,10.9,81,30.13,10.0,Calm,Calm,-,N/A,,Clear,0,2013-03-04 05:52:00